Regional Weather Roundup
Issued by NWS Bismarck, ND

Home | Current Version | Previous Version | Text Only | Print | Product List | Glossary On
Versions: 1 2 3 4 5 6 7 8 9 10 11 12 13 14 15 16 17 18 19 20 21 22 23 24 25 26 27 28 29 30 31 32 33 34 35 36 37 38 39 40 41 42 43 44 45 46 47 48 49 50
000
ASUS43 KBIS 232010
RWRBIS

NWR BROADCAST TEXT
NATIONAL WEATHER SERVICE BISMARCK ND
300 PM CDT SAT AUG 23 2014

NOTE: "FAIR" INDICATES FEW OR NO CLOUDS BELOW 12,000 FEET WITH NO
SIGNIFICANT WEATHER AND/OR OBSTRUCTIONS TO VISIBILITY.


CITY           SKY/WX    TMP DP  RH WIND       PRES   REMARKS
WILLISTON      LGT RAIN  57  54  89 NE13G23   29.98F
MINOT          CLOUDY    58  57  97 N13       29.98F FOG
MINOT AFB      LGT RAIN  58  58 100 NE14G22   29.98F
BISMARCK       LGT RAIN  62  61  96 NE14      29.87F FOG
DICKINSON      RAIN      57  55  93 NE20G30   29.87F FOG
GARRISON         N/A     59  57  93 NE15G24   29.92F
HETTINGER ARPT LGT RAIN  59  57  93 NE20      29.83F FOG
JAMESTOWN      LGT RAIN  67  65  93 E14G24    29.91F
BEACH          LGT RAIN  57  57 100 E18G26    29.90S
CARRINGTON     CLOUDY    63  63 100 E13G18    29.95F
CROSBY         LGT RAIN  54  54 100 NE16G24   30.05F
HARVEY         LGT RAIN  59  59 100 NE14G20   29.95F
HAZEN          LGT RAIN  57  57 100 NE12G21   29.91F
LINTON         CLOUDY    66  66 100 E17G25    29.82F
MANDAN         LGT RAIN  59  59 100 NE12G26   29.88F
OAKES            N/A     68  68 100 E20G25    29.88F
RUGBY          CLOUDY    59  59 100 NE15G24   29.98F FOG
STANLEY        LGT RAIN  55  55 100 NE16G28   29.99F
TIOGA          LGT RAIN  54  54 100 NE15G24   30.03F
WATFORD CITY   LGT RAIN  55  55 100 NE21G28   29.92F
$$

CITY           SKY/WX    TMP DP  RH WIND       PRES   REMARKS
GRAND FORKS    CLOUDY    75  67  76 E13       29.94F
GRAND FORKS AF CLOUDY    69  69  99 NE10      29.97F
DEVILS LAKE    CLOUDY    63  57  82 NE15G21   29.95F
FARGO          LGT RAIN  72  67  84 E13       29.93F
CANDO          CLOUDY    61  59  94 NE12      30.00F
CAVALIER       MOCLDY    68  63  83 N12G18    30.00F
GRAFTON        CLOUDY    70  66  88 NE13G20   29.98F
GWINNER        CLOUDY    70  70 100 E12       29.91F
LANGDON        CLOUDY    61  59  94 NE18G24   30.02F
ROLLA          MOCLDY    57  57 100 NE16G23   30.04F FOG
WALHALLA         N/A     63  63 100 N13       30.03F
$$

CITY           SKY/WX    TMP DP  RH WIND       PRES   REMARKS
ABERDEEN       LGT RAIN  69  68  96 E15       29.84F
MOBRIDGE       CLOUDY    68  67  96 E20G31    29.75F
BUFFALO          N/A     63  59  87 E22G29    29.76F
RAPID CITY     PTSUNNY   74  62  66 SE3       29.79F
GLASGOW        RAIN      55  53  93 NE28G33   29.96F FOG
SIDNEY         CLOUDY    57  55  94 NE16      29.95F
WOLF POINT     LGT RAIN  57  52  83 NE25G32   29.97F
GLENDIVE       CLOUDY    55  55 100 NE20G25   29.91F
MILES CITY     CLOUDY    61  59  93 NE20G28   29.80F
BAKER          CLOUDY    60  58  92 E21       29.85F FOG
$$

CITY           SKY/WX    TMP DP  RH WIND       PRES   REMARKS
BILLINGS       LGT RAIN  55  53  93 NW22      29.88R
GREAT FALLS    RAIN      49  48  97 N21       30.15S FOG
ESTEVAN        LGT RAIN  55  54  94 NE15G22   30.06F
$$



USA.gov is the U.S. government's official web portal to all federal, state and local government web resources and services.